Location: Chevoux
(46.3801°N, 4.9476°E)
Time: 18:29:22
(UTC+00:00)

ISS - Pass Details

Date: 29 April 2021
Orbit: 418 x 421 km, 51.6° (Epoch: 07 May)

Event Time Altitude Azimuth Distance (km) Brightness Sun altitude
Exits shadow 03:02:53 22° 198° (SSW) 979 -2.4 -13.7°
Maximum altitude 03:04:33 37° 143° (SE) 667 -2.8 -13.4°
Drops below altitude 10° 03:07:43 10° 74° (ENE) 1,506 0.2 -13.0°
Sets 03:09:54 0° 66° (ENE) 2,375 1.8 -12.7°
